Regional Weather Roundup
Issued by NWS

Home | Current Version | Previous Version | Graphics & Text | Print | Product List | Glossary On
Versions: 1 2 3 4 5 6 7 8 9 10 11 12 13 14 15 16 17 18 19 20 21 22 23 24 25 26 27 28 29 30 31 32 33 34 35 36 37 38 39 40 41 42 43 44 45 46 47 48 49 50
000
ASUS43 KDMX 190206
RWRIA

WEATHER ROUNDUP FOR IOWA
NATIONAL WEATHER SERVICE DES MOINES IA
800 PM CST SUN FEB 18 2018

NOTE: "FAIR" INDICATES FEW OR NO CLOUDS BELOW 12,000 FEET WITH NO
SIGNIFICANT WEATHER AND/OR OBSTRUCTIONS TO VISIBILITY.

* - THESE STATIONS ARE NOT NWS STATIONS...THUS NOT UNDER NWS
QUALITY CONTROL.  THEY ALSO DO NOT REPORT WEATHER SUCH
AS PRECIPITATION OR FOG.

IAZ001>003-012>014-020>022-031>034-043>046-190300-
   NORTHWEST IOWA

CITY           SKY/WX    TMP DP  RH WIND       PRES   REMARKS
CARROLL *      CLOUDY    37  30  75 S6        29.64R WCI  33
CHEROKEE *     CLEAR     34  31  91 CALM      29.62R
DENISON *      MOCLDY    43  30  61 S12       29.63R
LE MARS *      PTCLDY    34  32  93 W8        29.65R WCI  27
ORANGE CITY *  CLEAR     34  32  93 NW5       29.63R WCI  30
SHELDON *      CLOUDY    32  32 100 CALM      29.62R
SIOUX CITY     CLEAR     34  30  85 NW21      29.64R WCI  22
SPENCER        MOCLDY    33  30  88 E3        29.62S
STORM LAKE *   CLEAR     36  32  87 S10       29.61S WCI  28
$$

IAZ055>058-069>071-079>083-090>094-190300-
   SOUTHWEST IOWA

CITY           SKY/WX    TMP DP  RH WIND       PRES   REMARKS
ATLANTIC *     CLOUDY    43  32  65 S9        29.64F
AUDUBON *      CLEAR     36  28  75 CALM      29.65S
CLARINDA *     CLOUDY    50  37  62 S8        29.68S
COUNCIL BLFS * CLOUDY    43  37  81 SE10      29.62R
CRESTON *      CLOUDY    46  32  57 S8        29.68F
HARLAN  *      CLEAR     41  34  75 S3        29.67R
LAMONI         CLOUDY    48  32  53 S10       29.70S
RED OAK *      CLOUDY    48  37  66 S7        29.65S
SHENANDOAH *   CLOUDY    45  37  76 SE8       29.65R
$$

IAZ047>049-059>061-072>074-084-190300-
   CENTRAL IOWA

CITY           SKY/WX    TMP DP  RH WIND       PRES   REMARKS
AMES           CLOUDY    41  30  65 S9        29.68S
ANKENY *       CLOUDY    39  27  60 CALM      29.70S
BOONE *        CLOUDY    39  32  75 S7        29.66F WCI  34
CHARITON *     CLOUDY    48  32  53 S15       29.71S
DES MOINES     CLOUDY    45  30  55 S9        29.69S
GRINNELL*      MOCLDY    39  30  71 SE6       29.73S WCI  34
KNOXVILLE *    CLOUDY    46  28  49 S8        29.70F
MARSHALLTOWN   CLOUDY    39  31  72 SE9       29.70F WCI  33
NEWTON *       CLOUDY    41  30  65 SE8       29.71S
PELLA *        CLOUDY    46  30  54 S8        29.73S
PERRY *        CLOUDY    38  28  69 SE12      29.66F WCI  30
$$

IAZ004>006-015-016-023>025-035-036-190300-
   NORTH CENTRAL IOWA

CITY           SKY/WX    TMP DP  RH WIND       PRES   REMARKS
ALGONA *       PTCLDY    41 N/A N/A S10G18    29.63S
CLARION *      CLOUDY    37  37 100 SE13      29.65F WCI  29
ESTHERVILLE    CLOUDY    36  31  82 S3        29.63R
FORT DODGE *   CLEAR     44  27  51 S10       29.64F
MASON CITY     CLOUDY    36  29  75 S15       29.66F WCI  27
FOREST CITY *  CLOUDY    37  32  81 SE9       29.65S WCI  31
WEBSTER CITY * MOCLDY    36  30  80 SE9       29.64F WCI  29
IOWA FALLS *   FAIR      36  31  82 SE10      29.69F WCI  28
$$

IAZ007>011-017>019-026>030-037>042-050>054-066-190300-
   NORTHEAST IOWA

CITY           SKY/WX    TMP DP  RH WIND       PRES   REMARKS
CEDAR RAPIDS   FAIR      41  29  62 S10       29.76R
CHARLES CITY * FAIR      36  34  93 SE13      29.70F WCI  27
CLINTON *      FAIR      39  31  72 S21       29.82  WCI  29
DECORAH *      MOCLDY    37  30  75 S12G22    29.72F WCI  30
DUBUQUE        FAIR      37  29  72 S18       29.79R WCI  27
MONTICELLO *   MOCLDY    39  30  70 SE8       29.80R WCI  34
OELWEIN *      FAIR      36  36 100 SE14      29.74S WCI  27
WATERLOO       FAIR      37  30  75 SE12      29.72S WCI  29
$$

IAZ064-065-067-068-078-190300-
   EAST CENTRAL IOWA

CITY           SKY/WX    TMP DP  RH WIND       PRES   REMARKS
DAVENPORT      FAIR      41  30  65 S22       29.81F
IOWA CITY      MOCLDY    41  29  62 SE6       29.79R
MT. PLEASANT * MOCLDY    41  30  65 S20G28    29.76F
MUSCATINE *    FAIR      43  30  61 S15       29.80S
QUAD CITIES    FAIR      41  31  67 SE12      29.81F
$$

IAZ062-063-075>077-085>089-095>099-190300-
   SOUTHEAST IOWA

CITY           SKY/WX    TMP DP  RH WIND       PRES   REMARKS
BURLINGTON     PTCLDY    44  27  51 S18G29    29.78F
FAIRFIELD *    CLOUDY    45  27  49 S10G16    29.75R
FORT MADISON * PTCLDY    43  30  61 SE16G23   29.78F
KEOKUK *       PTCLDY    45  28  53 SE14G23   29.76F
OSKALOOSA *    CLOUDY    41  31  68 S7        29.75R
OTTUMWA        CLOUDY    47  29  49 S10       29.74R
WASHINGTON *   CLOUDY    43  32  65 SE13G18   29.77R
$$

ABBREVIATIONS USED IN REMARKS
   TC - TEMPERATURES IN CELSIUS
  WCI - WIND CHILL INDEX
   HX - HEAT INDEX
  VSB - VISIBILITY
$$





USA.gov is the U.S. government's official web portal to all federal, state and local government web resources and services.